Regional Weather Roundup
Issued by NWS

Home | Current Version | Previous Version | Text Only | Print | Product List | Glossary Off
Versions: 1 2 3 4 5 6 7 8 9 10 11 12 13 14 15 16 17 18 19 20 21 22 23 24 25 26 27 28 29 30 31 32 33 34 35 36 37 38 39 40 41 42 43 44 45 46 47 48 49 50

000
ASUS43 KLOT 262309
RWRIL

ILLINOIS REGIONAL WEATHER ROUNDUP
NATIONAL WEATHER SERVICE CHICAGO/ROMEOVILLE IL
600 PM CDT MON JUN 26 2017

NOTE: "FAIR" INDICATES FEW OR NO CLOUDS BELOW 12,000 FEET WITH NO
SIGNIFICANT WEATHER AND/OR OBSTRUCTIONS TO VISIBILITY.

* THESE STATIONS ARE NOT UNDER NWS QUALITY CONTROL. THEY ALSO MAY NOT
  REPORT WEATHER SUCH AS PRECIPITATION OR FOG.

ILZ001-002-007-009-015-016-024-270000-
NORTHWEST ILLINOIS

CITY           SKY/WX    TMP DP  RH WIND       PRES   REMARKS
MOLINE         MOSUNNY   73  42  32 NW12      30.06S
STERLING*      MOSUNNY   71  44  37 NW16      30.06S
SAVANNA*       MOSUNNY   70  43  37 NW12G20   30.07S
$$

ILZ003-004-008-010-011-017-018-270000-
NORTH CENTRAL ILLINOIS

CITY           SKY/WX    TMP DP  RH WIND       PRES   REMARKS
ROCKFORD       MOSUNNY   69  43  38 N14       30.07R
FREEPORT*      MOSUNNY   67  43  41 N13G21    30.08S
ROCHELLE*      SUNNY     68  42  38 NW14G21   30.06S
DE KALB*       PTSUNNY   68  42  39 N18       30.06R
PERU*          MOSUNNY   71  44  38 N15       30.05F
$$

ILZ005-006-012>014-019>023-270000-
NORTHEAST ILLINOIS

CITY           SKY/WX    TMP DP  RH WIND       PRES   REMARKS
CHICAGO-OHARE  PTSUNNY   71  41  33 NW21G29   30.02S
CHICAGO-MIDWAY PTSUNNY   70  42  36 NW16G22   30.02S
AURORA         MOSUNNY   71  41  33 NW21G29   30.05R
LANSING*       PTSUNNY   72  40  31 N12G23    30.02S
JOLIET*        PTSUNNY   72  43  34 NW9G20    30.03S
WAUKEGAN       PTSUNNY   65  45  48 NW12G18   30.03F
DUPAGE AIRPORT MOSUNNY   68  43  40 NW17G23   30.03S
WHEELING       CLOUDY    64  45  49 N16G23    30.05R
MORRIS*        MOSUNNY   71  42  35 NW13G20   30.03R
ROMEOVILLE*    CLOUDY    70  38  30 NW14G20   30.04R
NORTHERLY ISL    N/A     68  40  35 NW9         N/A
$$

LMZ740>746-270000-
SOUTHERN LAKE MICHIGAN

STATION/POSITION SKY/WX   TEMP    WIND        PRES    VSBY  WAVE
                          AIR SEA DIR/SP/G                  HT/PER
                          (F)     (DEG/KT/KT) (MB)    (MI)  (FT/S)
SOUTHERN BUOY              59 61  320/ 12/ 16 1016.9          3/ 4
WILMETTE HARBOR            63 63  330/ 16/ 19   N/A           3/ 3
HARRISON CRIB              66     350/ 18/ 19   N/A
BURNHAM HARBOR             68                   N/A
CALUMET HARBOR             70     280/  5/ 18 1016.1S
BURNS HARBOR               65     360/ 17/ 20 1016.9F
MICHIGAN CITY              63     360/ 19/ 20   N/A
MICHIGAN CITY 6N           62 66   20/ 16/ 19   N/A           3/ 4
ST. JOSEPH                 62 69   40/ 16/ 23 1017.1          3/ 4
$$

ILZ025>027-034>036-040-047-049-050-058-095>099-270000-
WEST-CENTRAL ILLINOIS

CITY           SKY/WX    TMP DP  RH WIND       PRES   REMARKS
QUINCY         SUNNY     72  50  45 SW8       30.09F
GALESBURG*     CLOUDY    65  54  67 W6        30.09F THUNDER
MACOMB*        CLOUDY    64  50  59 NE16      30.11S
JACKSONVILLE*  MOSUNNY   71  49  46 SW12      30.10S
PITTSFIELD*    SUNNY     71  53  53 SW8       30.11F
$$

ILZ028>032-037-038-041>044-048-051>054-059>061-270000-
CENTRAL ILLINOIS

CITY           SKY/WX    TMP DP  RH WIND       PRES   REMARKS
PONTIAC        CLOUDY    64  56  75 NW13      30.10R
BLOOMINGTON    LGT RAIN  58  52  80 W8        30.10F
DECATUR        PTSUNNY   64  48  56 N14       30.11S
PEORIA         PTSUNNY   62  58  86 W3        30.09F
LACON*         CLOUDY    67  50  55 W10       30.06F
LINCOLN*       CLOUDY    64  53  66 N12       30.11S
SPRINGFIELD    SUNNY     74  49  41 W14       30.10F
TAYLORVILLE    PTSUNNY   71  50  46 W7        30.10F
$$

ILZ033-039-045-046-055>057-062-063-270000-
EAST-CENTRAL ILLINOIS

CITY           SKY/WX    TMP DP  RH WIND       PRES   REMARKS
CHAMPAIGN      CLOUDY    63  48  58 NW14      30.10R
RANTOUL*       LGT RAIN  61  52  72 W16G28    30.10F
MATTOON        CLOUDY    69  53  56 W9        30.10F
PARIS*         MOSUNNY   70  51  51 W18       30.10S
$$

ILZ079-100>102-270000-
SOUTHWEST ILLINOIS

CITY           SKY/WX    TMP DP  RH WIND       PRES   REMARKS
ALTON          CLOUDY    68  55  64 CALM      30.10F
BELLEVILLE     CLOUDY    70  56  59 E3        30.11F
CAHOKIA*       CLOUDY    73  47  39 W5        30.10F
SPARTA*        PTSUNNY   72  51  48 SW3       30.13R
$$

ILZ064>066-069>071-074>076-080>082-084>086-088>090-092>094-270000-
SOUTH-CENTRAL ILLINOIS

CITY           SKY/WX    TMP DP  RH WIND       PRES   REMARKS
CARBONDALE     CLOUDY    74  52  46 N5        30.12R
CAIRO*         CLOUDY    75  52  44 CALM      30.11S
EFFINGHAM*     PTSUNNY   69  50  49 W3        30.12F
MARION         CLOUDY    75  54  46 N6        30.12R
MT. VERNON     CLOUDY    70  52  52 N6        30.12R
CENTRALIA*     CLOUDY    69  52  54 CALM      30.10F
SALEM*         PTSUNNY   70  51  51 CALM      30.12S
METROPOLIS*    CLOUDY    76  56  48 SW3       30.11S
$$

ILZ067-068-072-073-078-083-087-091-270000-
SOUTHEAST ILLINOIS

CITY           SKY/WX    TMP DP  RH WIND       PRES   REMARKS
LAWRENCEVILLE  CLOUDY    69  49  48 NW8       30.12S
FLORA*         CLOUDY    71  48  44 E3        30.09F
FAIRFIELD*     CLOUDY    70  50  47 NE5       30.11S
HARRISBURG*    PTSUNNY   74  55  50 CALM      30.11R
ROBINSON*      CLOUDY    66  51  57 NW5       30.13R
CARMI*         PTSUNNY   71  53  52 N8        30.10R
$$

ABBREVIATIONS USED IN REMARKS
   TC - TEMPERATURE IN CELSIUS
  WCI - WIND CHILL INDEX
   HX - HEAT INDEX
  VSB - VISIBILITY
$$





USA.gov is the U.S. government's official web portal to all federal, state and local government web resources and services.